{"data":{"norad_id":68186,"intl_designator":"2026-050V","name":"STARLINK-37079","alt_names":[],"object_type":"PAYLOAD","status":"ACTIVE","operator":null,"country":"US","launch_date":"2026-03-14","launch_site_code":"AFETR","launch_vehicle":null,"mission":null,"orbit_class":"UNKNOWN","rcs_meters":null,"size_class":null,"mass_kg":null,"dimensions":null,"purposes":["comms"],"wikipedia_slug":null,"has_3d_model":false,"image_url":null,"decayed_at":null,"tle_current":{"epoch":"2026-09-20T04:36:34.250112Z","epoch_age_seconds":78785,"freshness":"FRESH","line1":"1 68186U 26050V   26263.19206308  .00021854  00000+0  65604-3 0  9993","line2":"2 68186  53.1578  78.9678 0002810  76.4248 283.7067 15.34399121 30528","mean_motion":15.34399121,"eccentricity":0.000281,"inclination_deg":53.1578,"raan_deg":78.9678,"arg_perigee_deg":76.4248,"mean_anomaly_deg":283.7067,"bstar":0.00065604,"rev_number":3052,"period_min":93.847811843213,"perigee_km":460.78357593996,"apogee_km":464.62812962322,"semimajor_km":6840.8428527816,"source":"CELESTRAK","updated_at":"2026-09-20T09:00:43.803050Z"}}}